This is the latest recevied weather packets stored in our database for station/object KB4MOX. If no packets are shown the sender has not sent any weather packets the latest 10 day(s).
| Time | Temp. | Humidity | Pressure | Rain* | Wind** | Luminosity | Snow |
|---|---|---|---|---|---|---|---|
| 1778077538 | 21.11° C | 77% | 1016.4 hPa | 0 mm | - | 233 W/m² | - |
| 1778077236 | 20.56° C | 78% | 1016.4 hPa | 0 mm | - | 231 W/m² | - |
| 1778076934 | 20.56° C | 78% | 1016.4 hPa | 0 mm | - | 230 W/m² | - |
| 1778076632 | 20.56° C | 78% | 1016.2 hPa | 0 mm | - | 175 W/m² | - |
| 1778076329 | 20.56° C | 79% | 1016.2 hPa | 0 mm | - | 203 W/m² | - |
| 1778076026 | 20.56° C | 78% | 1016.2 hPa | 0 mm | - | 193 W/m² | - |
| 1778075723 | 20° C | 80% | 1016.3 hPa | 0 mm | - | 181 W/m² | - |
| 1778075419 | 19.44° C | 80% | 1016.2 hPa | 0 mm | - | 163 W/m² | - |
| 1778075115 | 19.44° C | 81% | 1016.3 hPa | 0 mm | - | 144 W/m² | - |
| 1778074812 | 19.44° C | 81% | 1016.3 hPa | 0 mm | - | 134 W/m² | - |
| 1778074509 | 19.44° C | 82% | 1016.3 hPa | 0 mm | - | 118 W/m² | - |
| 1778074206 | 18.89° C | 83% | 1016.2 hPa | 0 mm | - | 100 W/m² | - |
| 1778073903 | 18.89° C | 82% | 1016.3 hPa | 0 mm | - | 84 W/m² | - |
| 1778073600 | 18.89° C | 82% | 1016.4 hPa | 0 mm | - | 79 W/m² | - |
| 1778073297 | 18.89° C | 82% | 1016.1 hPa | 0 mm | - | 91 W/m² | - |
| 1778072994 | 18.89° C | 82% | 1016.2 hPa | 0 mm | - | 94 W/m² | - |
| 1778072690 | 18.89° C | 82% | 1016.2 hPa | 0 mm | - | 117 W/m² | - |
| 1778072388 | 18.89° C | 82% | 1016 hPa | 0 mm | - | 143 W/m² | - |
| 1778072086 | 18.33° C | 82% | 1015.9 hPa | 0 mm | - | 171 W/m² | - |
| 1778071784 | 18.33° C | 83% | 1015.8 hPa | 0 mm | - | 125 W/m² | - |
| 1778071481 | 17.78° C | 84% | 1015.8 hPa | 0 mm | - | 114 W/m² | - |
| 1778071179 | 17.78° C | 84% | 1015.7 hPa | 0 mm | - | 104 W/m² | - |
| 1778070877 | 17.78° C | 84% | 1015.7 hPa | 0 mm | - | 46 W/m² | - |
| 1778070574 | 17.78° C | 83% | 1015.6 hPa | 0 mm | - | 49 W/m² | - |
| 1778070271 | 17.78° C | 83% | 1015.7 hPa | 0 mm | - | 72 W/m² | - |
* Rain latest hour (hover to see other rain measurements)
** Current wind speed in m/s (hover to see current wind gust speed)